Location: Unspecified
(58.9933°N, 5.6375°E)
Time: 13:41:21
(UTC+02:00)

CZ-3 Stage 3 - Visible Passes

Search period start: 23 October 2014 00:00
Search period end: 01 November 2014 23:00
Orbit: 415 x 34824 km, 30.9° (Epoch: 21 October)

Date Brightness Start Highest point End Pass type
(mag) Time Alt. Az. Time Alt. Az. Time Alt. Az.
23 Oct 7.3 03:44:58 10° SW 07:48:36 30° SSW 08:01:45 10° SE visible
23 Oct 7.8 23:37:48 10° SSE 03:54:30 33° SSE 04:26:47 10° ESE visible
24 Oct 8.5 23:04:18 10° ESE 23:57:57 13° ESE 00:28:30 10° ESE visible
26 Oct 7.2 02:28:55 10° SW 06:44:53 31° SSW 06:58:00 10° SSE visible
26 Oct 7.7 22:22:04 10° SSE 02:51:07 34° SSE 03:23:17 10° ESE visible
27 Oct 8.4 21:43:51 10° ESE 22:53:40 15° ESE 23:28:58 10° E visible
29 Oct 7.1 02:12:43 10° SW 06:41:01 31° SSW 06:54:06 10° SSE visible
29 Oct 7.7 22:06:30 10° SSE 02:47:34 35° SSE 03:19:37 10° ESE visible
30 Oct 8.4 21:24:36 10° ESE 22:49:15 16° ESE 23:28:06 10° E visible
01 Nov 7.1 01:56:33 10° SW 06:36:59 30° SSW 06:50:04 10° SSE visible
01 Nov 10.5 21:51:06 10° SSE 23:00:00 17° SSE 23:00:00 17° SSE visible
